Dewpoint
36 37 37 37 37 36 36 36 36 36 36 36 35 35 35 35 35 35 35 36 36 36 36 36 37 37 38 39 40 40 40 40 41 40 39 39 40 41 41 41 41 42 42 42 43 43 42 42 41 41 41 41 41 41 41 41 41 41 41 41 41 41 41 40 40 39 39 39 40
37 38 38 37 36 37 37 36 36 36 36 36 36 36 35 35 35 35 35 35 36 36 36 37 37 38 39 40 40 40 40 40 41 41 41 41 41 41 42 42 42 42 42 42 43 42 42 42 41 41 40 41 41 41 41 42 41 41 40 40 41 41 40 40 40 40 39 39 39
40 40 39 38 37 37 37 36 36 35 35 35 36 36 36 36 35 35 35 36 36 36 37 37 38 39 39 40 40 40 40 40 41 41 41 41 41 41 41 41 42 42 42 43 43 42 42 41 41 40 39 39 40 40 40 40 40 40 40 40 40 40 40 40 40 40 40 39 39
42 41 40 38 38 37 36 36 36 36 36 35 36 36 36 36 36 36 36 36 36 37 37 37 38 39 40 40 40 40 40 39 40 41 41 41 41 41 41 41 41 42 42 43 42 42 42 41 40 39 39 39 40 40 39 39 40 40 40 40 40 40 39 39 39 40 40 39 39
42 41 41 39 39 39 38 37 37 37 37 36 36 36 36 37 37 37 37 37 36 36 37 38 39 40 41 40 41 41 41 41 39 39 41 41 41 41 42 42 41 42 42 42 42 42 42 40 39 38 38 39 38 39 40 40 40 39 39 39 39 39 39 39 39 39 39 39 39
41 41 41 40 40 40 39 39 39 38 38 38 37 36 36 36 36 36 36 36 36 37 38 39 39 40 40 40 41 41 41 42 41 41 41 41 41 42 42 42 42 42 41 41 41 42 42 40 38 37 37 37 37 38 39 39 39 39 39 38 38 38 38 38 38 39 39 39 39
38 38 38 38 39 39 38 38 38 38 38 38 37 36 36 36 36 36 36 36 36 37 38 39 39 39 39 39 40 41 41 41 42 42 42 42 41 41 41 41 41 41 41 40 40 40 41 40 37 36 36 36 36 37 38 39 38 38 38 38 37 38 38 38 38 38 39 39 38
36 36 36 36 36 37 38 38 38 37 36 36 36 37 37 37 37 36 36 36 37 37 38 39 40 40 39 39 40 40 40 40 41 41 41 41 41 41 41 40 40 40 40 39 39 38 38 37 36 36 36 36 35 36 37 38 38 38 37 36 36 36 36 37 37 37 37 37 38
36 36 36 36 36 37 37 38 38 37 36 36 37 37 37 38 38 38 37 37 37 38 39 39 40 40 40 40 41 41 41 41 41 41 41 41 41 41 40 39 39 38 38 38 37 37 36 36 35 34 34 34 34 35 36 37 37 37 36 35 35 35 35 36 35 35 35 35 36
35 35 35 35 36 36 36 37 37 37 36 36 36 36 37 36 37 38 38 37 38 39 39 39 40 40 41 41 41 41 41 41 41 41 41 40 40 39 38 37 36 36 36 36 36 36 35 35 34 34 34 34 34 35 36 36 36 36 35 34 34 34 34 34 33 33 33 33 34
35 34 34 34 35 35 35 36 36 35 35 36 36 36 36 36 37 38 38 38 39 39 39 39 40 40 40 40 41 41 41 40 39 38 37 36 36 36 35 35 34 34 33 33 34 34 34 34 34 35 35 34 34 35 35 36 36 36 35 34 34 34 33 32 32 32 32 32 32
34 34 34 34 34 35 35 35 34 34 34 34 34 34 35 35 36 37 37 38 38 38 38 39 39 39 39 38 39 38 38 37 36 35 34 33 34 34 34 33 34 33 33 34 34 34 33 34 34 34 34 34 34 34 35 35 35 35 34 35 34 33 32 32 31 31 30 30 31
33 33 33 34 34 35 35 34 34 34 34 34 34 34 34 34 34 35 36 36 36 36 36 37 37 37 37 36 36 36 36 35 35 34 33 33 33 33 33 34 35 35 35 36 36 35 34 34 33 33 32 33 33 34 34 34 33 33 32 33 33 32 32 31 30 30 29 29 29
33 33 33 34 34 34 34 34 33 33 33 33 33 33 34 34 33 34 35 36 36 36 36 36 36 36 35 36 35 35 34 34 34 34 34 34 34 34 35 36 36 37 37 38 38 36 35 34 33 32 32 32 32 33 33 34 33 32 32 32 32 31 31 31 31 30 30 31 30
33 33 33 33 34 33 33 33 33 32 32 33 33 33 33 33 33 34 35 36 36 36 36 35 34 34 35 36 36 35 35 34 34 34 35 35 36 36 37 38 38 38 38 38 38 36 35 33 32 32 32 32 31 32 32 33 33 32 32 32 31 31 31 31 31 31 31 32 31
32 32 32 33 33 33 32 32 32 32 32 32 33 33 33 33 34 35 37 38 37 36 36 35 35 35 35 35 36 36 35 35 35 35 35 36 36 37 38 38 38 38 37 36 36 36 35 34 34 33 32 32 32 31 31 32 32 32 32 32 32 31 31 30 30 30 31 31 30
32 32 32 32 32 32 32 32 31 31 32 32 32 33 33 34 35 36 36 37 37 37 36 36 36 35 35 35 36 36 36 36 36 36 36 36 37 37 37 37 37 36 36 35 34 33 33 34 34 34 33 33 32 32 32 32 32 32 32 32 32 32 31 30 30 29 29 29 28
32 32 32 31 31 31 31 31 31 31 31 32 32 33 33 34 35 35 35 36 37 37 37 36 36 36 36 36 36 36 37 37 37 37 38 37 37 37 37 36 36 35 34 33 32 32 32 32 32 33 34 33 33 32 32 32 32 32 32 32 31 31 30 30 29 28 28 27 27
32 31 31 31 31 31 31 31 31 32 32 32 33 33 34 35 35 35 35 36 36 37 37 36 36 36 36 36 36 36 37 38 37 37 37 36 36 36 36 35 34 33 33 32 32 32 32 32 32 33 33 32 32 32 32 31 31 30 30 30 30 29 29 28 27 27 26 26 25
32 32 31 31 31 32 32 32 33 33 34 34 35 35 35 36 36 35 35 35 36 36 36 36 35 35 35 35 34 35 36 37 36 35 35 35 35 35 34 34 33 33 33 32 32 32 31 31 32 32 31 31 30 30 29 29 29 29 29 29 29 28 27 27 26 26 26 25 25
33 32 32 32 33 33 34 35 35 35 36 36 36 36 36 36 36 35 35 35 36 35 35 35 34 34 34 34 34 34 35 36 36 35 34 34 34 34 33 33 33 32 32 32 31 31 30 30 30 30 30 30 29 29 29 28 28 28 28 28 27 27 26 26 26 26 26 25 25
34 33 33 34 35 35 35 36 36 36 36 35 36 36 35 35 35 35 35 35 35 34 35 35 35 35 34 35 35 35 35 36 35 35 34 34 34 34 34 34 33 32 32 31 31 30 30 30 31 31 31 30 29 29 29 28 27 27 27 26 26 26 26 26 26 26 26 25 25
34 34 34 35 35 35 35 36 36 35 35 35 35 35 35 35 34 34 34 34 34 34 35 36 36 36 35 35 35 34 34 34 34 34 34 34 34 34 34 34 33 32 32 32 31 31 31 31 31 30 30 29 28 27 27 28 27 27 26 25 25 26 26 25 25 25 25 26 26
35 34 35 35 35 35 35 36 35 35 34 34 34 34 34 34 34 34 33 33 33 34 34 35 35 36 35 34 34 33 33 32 32 32 32 33 33 33 33 33 32 32 32 32 32 32 31 30 28 27 26 25 25 26 27 28 27 27 26 26 26 26 26 26 26 26 26 26 27
35 35 35 35 35 35 35 35 35 34 34 33 32 32 32 34 34 34 34 34 34 34 34 34 35 35 34 33 32 32 32 32 32 31 32 32 32 32 32 31 30 31 31 31 32 31 30 28 27 26 24 23 24 26 27 27 27 27 27 27 27 27 26 26 26 26 27 26 26
36 35 35 35 35 35 35 34 34 33 32 31 30 30 31 33 34 34 34 34 34 34 33 33 34 34 33 32 32 32 32 31 31 31 31 30 30 30 29 28 28 29 30 31 31 30 28 27 28 27 27 26 25 26 26 27 27 27 27 27 27 27 27 26 25 26 26 27 26
35 35 35 35 34 33 33 32 32 30 29 28 28 29 31 32 32 33 33 33 33 34 34 33 35 35 34 32 32 32 31 30 30 30 29 29 27 27 26 25 26 27 28 29 28 27 27 27 28 29 29 27 26 26 25 25 27 27 27 27 27 27 27 26 25 24 25 26 25
35 34 34 33 32 31 30 29 28 27 27 27 28 29 30 31 31 32 32 32 33 33 33 33 34 34 33 32 31 31 30 29 28 28 28 27 26 25 23 22 23 26 27 26 25 25 26 27 28 29 29 29 28 27 26 25 26 26 26 25 25 24 23 23 22 22 22 23 23
35 34 33 32 31 30 28 27 26 27 27 28 30 31 31 31 32 32 32 32 32 32 31 31 32 32 31 30 29 28 27 27 27 26 26 26 25 24 23 21 21 22 24 26 25 26 27 28 28 29 29 30 27 25 24 24 24 24 23 23 23 22 21 21 21 20 20 20 20
33 32 32 31 30 29 27 27 27 28 29 30 31 31 32 32 32 32 32 32 30 29 29 29 28 28 28 27 26 25 24 23 23 23 24 25 24 23 23 20 21 23 25 26 26 26 27 27 28 28 29 29 28 26 24 23 22 21 20 21 21 21 20 20 20 20 19 19 18
31 31 30 30 29 28 28 28 29 30 31 31 31 31 31 31 30 30 29 29 28 27 26 26 26 26 26 23 23 21 21 20 21 22 23 23 23 22 20 20 21 23 25 26 26 26 26 27 27 27 27 28 27 25 23 23 22 21 20 20 21 21 21 21 20 20 20 19 19
30 29 29 29 29 29 29 29 30 31 32 32 31 31 31 30 28 28 27 27 26 25 24 23 23 23 22 21 20 20 20 20 21 22 22 22 22 21 20 20 20 22 24 25 25 25 26 26 26 26 27 27 26 25 25 23 22 21 21 21 22 22 22 23 22 21 20 20 20
29 28 28 28 29 30 30 31 31 31 32 32 31 31 30 29 28 27 27 26 24 23 23 22 22 22 21 20 20 20 20 22 22 22 22 21 20 19 19 19 20 22 24 24 24 24 24 25 25 25 25 26 25 24 23 22 22 21 20 21 22 22 22 22 21 21 21 21 21
31 29 29 29 29 30 31 31 31 31 31 31 31 31 30 29 28 27 26 25 24 23 23 22 21 21 20 20 20 21 23 24 23 23 22 21 20 19 19 19 21 24 26 23 23 23 23 24 24 25 25 25 25 23 22 21 21 21 20 21 21 22 22 23 23 23 22 23 22
31 30 30 30 30 30 30 30 30 31 31 31 31 31 30 28 27 26 25 24 23 23 23 22 21 21 20 21 22 23 24 25 25 25 24 23 22 20 19 19 19 23 25 23 23 23 23 23 24 24 24 24 24 23 22 20 20 20 20 20 21 22 23 23 23 23 23 23 22
30 32 33 33 32 31 30 30 30 30 30 32 32 32 29 27 26 25 24 23 23 22 22 21 21 21 21 21 22 23 23 24 24 25 25 25 23 21 19 18 18 21 24 23 23 23 23 23 24 24 24 24 24 23 21 20 20 20 20 20 20 21 22 23 23 23 23 23 23
30 32 35 34 32 30 30 30 30 30 30 31 32 30 28 27 25 24 24 23 23 22 21 21 20 20 20 21 21 22 22 22 23 24 25 25 24 22 20 18 18 20 23 23 23 23 23 23 23 24 24 23 23 21 20 20 20 20 20 20 20 21 21 22 23 23 23 23 23
29 31 33 33 31 30 29 30 30 30 30 30 28 27 26 25 24 23 23 23 22 21 20 20 20 20 20 21 20 22 23 23 23 24 25 25 25 23 21 18 19 21 23 23 23 23 23 23 23 23 23 23 22 21 20 20 20 20 20 21 21 21 21 21 21 21 22 23 23
28 28 29 30 30 30 29 29 30 30 30 28 27 25 24 23 23 23 23 23 22 21 20 20 20 20 21 21 20 22 23 23 23 24 25 26 25 24 22 20 20 22 23 23 23 23 23 23 23 23 23 23 22 21 21 21 21 21 22 22 22 21 21 20 20 20 20 22 22
27 27 28 28 29 29 28 27 27 28 28 27 26 25 24 23 23 23 23 23 22 21 20 20 20 21 21 21 20 21 22 22 22 23 24 25 26 25 24 23 22 22 22 22 22 22 22 22 22 23 23 22 22 22 22 21 21 22 22 22 21 20 20 19 19 19 20 21 22
28 28 28 28 28 28 27 26 26 26 26 26 26 25 24 23 23 23 23 22 22 21 20 20 20 21 21 21 20 20 21 21 19 20 23 24 25 25 25 25 23 23 22 21 21 21 21 22 22 22 23 22 22 22 22 22 22 21 21 20 20 19 19 18 19 19 19 20 20